Home   Weather   Passau   Past weeks

Flag for Germany Past Weather in Passau, Bavaria, Germany — Yesterday and Last 2 Weeks

Now
N/A

Passing clouds.


Feels Like: N/A
Forecast: 18 / 34 °F
Wind: 12 mph from East

Location: Rohrbach

Current Time: Dec 3, 2016 at 1:38:24 am

Latest Report: Dec 3, 2016 at 1:00 am


Visibility: 2 mi

Pressure: N/A

Humidity: N/A

Dew Point: N/A

Location of PassauLocation

Past Weather in Passau — Graph

°F

Passau Temperature Yesterday

Maximum temperature yesterday: 36 °F (at 2:00 pm)
Minimum temperature yesterday: 25 °F (at 11:00 pm)
Average temperature yesterday: 33 °F

High & Low Weather Summary for the Past Weeks

 TemperatureHumidityPressure
High59 °F (Nov 21, 1:00 pm)100% (Nov 18, 12:00 am)30.63 "Hg (Nov 18, 12:00 am)
Low17 °F (Nov 30, 6:00 am)49% (Nov 28, 1:00 pm)29.73 "Hg (Nov 18, 3:00 pm)
Average37 °F84%30.12 "Hg
* Reported Nov 18 12:00 am — Dec 3 12:00 am, Passau, Weather by CustomWeather, © 2016

Note: Actual official high and low records may vary slightly from our data, if they occured in-between our weather recording intervals... More about our weather records

Advertising

Passau Weather History for the Previous 24 Hours

Scroll right to see more
 ConditionsComfort  
Time TempWeatherWind HumidityBarometerVisibility
12:00 am
Sat, Dec 3
25 °FCold.No wind95%30.28 "HgN/A
11:00 pm
Fri, Dec 2
25 °FChilly.1 mph95%30.27 "HgN/A
10:00 pm27 °FChilly.1 mph96%30.26 "HgN/A
9:00 pm26 °FChilly.1 mph96%30.26 "HgN/A
8:00 pm29 °FChilly.1 mph93%30.24 "HgN/A
7:00 pm30 °FChilly.2 mph92%30.22 "HgN/A
6:00 pm32 °FChilly.1 mph95%30.20 "HgN/A
4:00 pm35 °FChilly.No wind93%30.15 "HgN/A
3:00 pm36 °FChilly.1 mph92%30.13 "HgN/A
2:00 pm36 °FFog.3 mph91%30.11 "HgN/A
1:00 pm36 °FChilly.6 mph91%30.11 "HgN/A
12:00 pm35 °FFog.2 mph96%30.10 "HgN/A
11:00 am35 °FFog.3 mph95%30.10 "HgN/A
10:00 am34 °FChilly.3 mph95%30.09 "HgN/A
9:00 am34 °FFog.3 mph94%30.08 "HgN/A
8:00 am34 °FFog.5 mph95%30.06 "HgN/A
7:00 am35 °FChilly.5 mph93%30.05 "HgN/A
6:00 am35 °FFog.6 mph92%30.05 "HgN/A
5:00 am34 °FChilly.6 mph92%30.06 "HgN/A
4:00 am34 °FChilly.3 mph91%30.08 "HgN/A
3:00 am33 °FFog.5 mph92%30.09 "HgN/A
2:00 am33 °FFog.6 mph91%30.10 "HgN/A
1:00 am33 °FChilly.6 mph91%30.10 "HgN/A
Weather by CustomWeather, © 2016

See weather overviewHow to use our weather pages